INMARSAT 5-F1

Last updated on Mon Sep 15 2025 00:02:48 GMT+0000 (Coordinated Universal Time)

1 39476U 13073A 25257.08447655 .00000017 00000+0 00000+0 0 9999 2 39476 0.0180 162.7831 0000531 104.6073 178.9526 1.00270450 42810
UTC large
Height (km)
Speed (km/s)
/
Latitude / Longitude
Inclination (degrees)
Orbital Period (minutes)
Azimuth
Elevation
Range (km)
Doppler Factor

Next 0 passes for location: London (51.5072 / 0.1276)

Sorry there are no passes over London.